Kinston, NC

8:00 AM EST on November 18, 2017 (GMT -0500)
Kinston Regional Jetport / Stallings Field

Weather History for KISO - March, 2014

Change the Weather History Date:

Sunday, March 16, 2014

  Actual Average Record
Temperature  
Mean Temperature 48 °F -  
Max Temperature 57 °F 61 °F 93 °F (2016)
Min Temperature 39 °F 42 °F 23 °F (1988)
Degree Days  
Heating Degree Days 17    
Moisture  
Dew Point 41 °F    
Average Humidity 82    
Maximum Humidity 100    
Minimum Humidity 44    
Precipitation  
Precipitation 0.00 in - - ()
Sea Level Pressure  
Sea Level Pressure 29.99 in    
Wind  
Wind Speed 4 mph (NE)    
Max Wind Speed 14 mph    
Max Gust Speed 20 mph    
Visibility 9 miles    
Events Rain    
Averages and records for this station are not official NWS values.
T = Trace of Precipitation, MM = Missing Value Source: NWS Daily Summary

Daily Weather History Graph

Daily Weather History Graph

Search for Another Location

Airport or City:

Trip Planner

Search our weather history database for the weather conditions in past years. The results will help you decide how hot, cold, wet, or windy it might be!

Date:

Astronomy

Mar. 16, 2014 Rise Set
Actual Time 7:19 AM EDT 7:18 PM EDT
Civil Twilight 6:54 AM EDT 7:44 PM EDT
Nautical Twilight 6:24 AM EDT 8:13 PM EDT
Astronomical Twilight 5:55 AM EDT 8:43 PM EDT
Moon 7:32 PM EDT (3/16) 7:02 AM EDT (3/16)
Length of Visible Light 12h 49m
Length of Day
11h 59m
Full, 100% of the Moon is Illuminated
Mar 16
Full
Mar 16
Full
Mar 23
Last Quarter
Mar 30
New
Apr 7
First Quarter

Hourly Weather History & Observations

Time (EDT) Temp. Windchill Dew Point Humidity Pressure Visibility Wind Dir Wind Speed Gust Speed Precip Events Conditions
12:15 AM 47.8 °F - 40.5 °F 76% 30.05 in 10.0 mi SSW 3.5 mph - N/A   Clear
12:35 AM 49.8 °F - 40.6 °F 71% 30.04 in 10.0 mi Calm Calm - N/A   Clear
12:55 AM 48.9 °F - 40.5 °F 73% 30.04 in 10.0 mi Calm Calm - N/A   Clear
1:15 AM 48.2 °F - 40.1 °F 74% 30.04 in 10.0 mi Calm Calm - N/A   Clear
1:35 AM 48.2 °F - 38.8 °F 70% 30.04 in 10.0 mi Calm Calm - N/A   Clear
2:15 AM 48.6 °F - 39.2 °F 70% 30.05 in 10.0 mi NNW 4.6 mph - N/A   Clear
2:35 AM 47.7 °F - 39.0 °F 72% 30.04 in 10.0 mi South 4.6 mph - N/A   Clear
2:55 AM 46.9 °F - 38.7 °F 73% 30.04 in 10.0 mi Calm Calm - N/A   Clear
3:15 AM 43.9 °F - 39.2 °F 84% 30.04 in 10.0 mi Calm Calm - N/A   Clear
3:35 AM 44.1 °F - 38.7 °F 81% 30.04 in 10.0 mi Calm Calm - N/A   Clear
3:55 AM 43.5 °F - 38.5 °F 82% 30.03 in 10.0 mi Calm Calm - N/A   Clear
4:15 AM 41.9 °F - 38.3 °F 87% 30.03 in 10.0 mi Calm Calm - N/A   Clear
4:35 AM 42.6 °F - 38.3 °F 85% 30.03 in 10.0 mi Calm Calm - N/A   Clear
4:55 AM 40.5 °F 38.4 °F 38.3 °F 92% 30.03 in 10.0 mi SSW 3.5 mph - N/A   Clear
5:15 AM 41.0 °F - 38.1 °F 89% 30.03 in 10.0 mi Calm Calm - N/A   Clear
5:35 AM 41.9 °F - 38.5 °F 88% 30.03 in 10.0 mi Calm Calm - N/A   Clear
5:55 AM 39.7 °F - 37.6 °F 92% 30.04 in 10.0 mi Calm Calm - N/A   Clear
6:15 AM 39.9 °F - 36.5 °F 88% 30.04 in 10.0 mi Calm Calm - N/A   Clear
6:35 AM 39.9 °F - 36.7 °F 88% 30.04 in 10.0 mi Calm Calm - N/A   Clear
6:56 AM 39.2 °F - 37.4 °F 93% 30.04 in 10.0 mi Calm Calm - N/A   Clear
7:56 AM 42.8 °F 41.1 °F 39.2 °F 87% 30.03 in 10.0 mi NE 3.5 mph - N/A   Clear
8:56 AM 51.8 °F - 39.2 °F 62% 30.04 in 10.0 mi ENE 8.1 mph - N/A   Clear
9:56 AM 53.6 °F - 37.4 °F 54% 30.04 in 10.0 mi ENE 9.2 mph - N/A   Clear
10:56 AM 57.2 °F - 35.6 °F 44% 30.01 in 10.0 mi ENE 13.8 mph - N/A   Clear
11:56 AM 57.2 °F - 37.4 °F 48% 30.02 in 10.0 mi ENE 9.2 mph - N/A   Clear
12:56 PM 55.4 °F - 42.8 °F 63% 30.04 in 5.0 mi East 5.8 mph - N/A Rain Light Rain
1:56 PM 53.6 °F - 46.4 °F 77% 30.02 in 7.0 mi NE 6.9 mph - N/A Rain Light Rain
2:56 PM 53.6 °F - 48.2 °F 82% 30.01 in 7.0 mi East 4.6 mph - N/A Rain Light Rain
3:56 PM 53.6 °F - 50.0 °F 88% 29.97 in 7.0 mi ENE 6.9 mph - N/A   Light Drizzle
5:56 PM 51.8 °F - 48.2 °F 88% 29.95 in 3.0 mi ENE 13.8 mph 19.6 mph N/A Rain Light Rain
6:56 PM 46.4 °F 41.1 °F 44.6 °F 93% 29.90 in 2.0 mi ENE 11.5 mph 17.3 mph N/A Rain Light Rain
7:56 PM 46.4 °F 41.5 °F 44.6 °F 93% 29.90 in 2.0 mi ENE 10.4 mph 18.4 mph N/A Rain Light Rain
8:56 PM 44.6 °F 39.2 °F 44.6 °F 100% 29.87 in 7.0 mi ENE 10.4 mph - N/A   Overcast
9:56 PM 42.8 °F 37.0 °F 42.8 °F 100% 29.88 in 5.0 mi NE 10.4 mph - N/A Rain Rain
10:15 PM 43.2 °F 37.0 °F 42.3 °F 97% 29.86 in 7.0 mi NE 11.5 mph - N/A Rain Light Rain
10:35 PM 43.7 °F 37.3 °F 42.8 °F 97% 29.86 in 10.0 mi NE 12.7 mph 16.1 mph N/A Rain Light Rain
10:55 PM 43.3 °F 38.1 °F 42.4 °F 97% 29.85 in 10.0 mi NNE 9.2 mph - N/A   Drizzle
11:15 PM 43.2 °F 37.9 °F 42.4 °F 97% 29.84 in 10.0 mi NNE 9.2 mph - N/A   Drizzle
11:35 PM 42.8 °F 37.0 °F 42.3 °F 98% 29.83 in 10.0 mi NNE 10.4 mph - N/A   Light Drizzle
11:55 PM 42.4 °F 37.0 °F 41.9 °F 98% 29.83 in 10.0 mi NNE 9.2 mph - N/A Rain Rain